Tracking 35274 objects as of 10-Sep-2026
HD Live streaming from Space Station
objects crossing your sky now

KX-09

Track KX-09 now!
10-day predictions


NORAD ID: 44520
Int'l Code: 2019-058B
Launch date: August 30, 2019
Source: People's Republic of China (PRC)
Launch site: Jiuquan Satellite Launch Center, China (JSC)
Your satellite tracking list
Your tracking list is empty




NASA's NSSDC Master Catalog

Two Line Element Set (TLE):
1 44520U 19058B   26253.28886861  .00000282  00000-0  29707-4 0  9994
2 44520  97.7781 266.1204 0011580  61.7462 298.4927 14.96835183382763
Source of the keplerian elements: AFSPC